スコッティ彗星

P/2000 Y3 ( Scotti ) 2012

English version
Home page
Total 6,336 html files since Dec. 4, 1995
Updated on September 16, 2008

---------------------------------------------------------------------

・ プロフィール

・ 軌道要素

Perturbed ephemeris below is based on elements from MPC 44030. 

 Epoch = 2455920.50000 TT   T = 2455947.11430 TT
 Peri. =   92.57536         a =     4.8982442 AU
 Node  =  354.16759 J2000.0 e =     0.2001428
 Incl. =    2.25898         q =     3.9178958 AU

・ 光度変化

        m1 = 9.0 + 5 logΔ + 10.0 log r

---------------------------------------------------------------------

軌道要素はMinor Planet & Comet Ephemeris Serviceで計算したものです。
光度グラフはComet for Windowsで作成したものです。

---------------------------------------------------------------------

Copyright(C) 1995-2008 Seiichi Yoshida (comet@aerith.net). All rights reserved.